This is the latest recevied weather packets stored in our database for station/object DC4AT. If no packets are shown the sender has not sent any weather packets the latest 1 day(s).
| Time | Temp. | Humidity | Pressure | Rain* | Wind** | Luminosity | Snow |
|---|---|---|---|---|---|---|---|
| 1778055210 | 11.11° C | 79% | 1004.8 hPa | 0.25 mm | - | 151 W/m² | - |
| 1778054011 | 11.11° C | 79% | 1004.7 hPa | 0.25 mm | - | 149 W/m² | - |
| 1778053411 | 11.11° C | 79% | 1004.7 hPa | 0.25 mm | - | 76 W/m² | - |
| 1778052811 | 10.56° C | 80% | 1004.6 hPa | 0.25 mm | - | 113 W/m² | - |
| 1778052211 | 10.56° C | 79% | 1004.7 hPa | 0.25 mm | - | 60 W/m² | - |
| 1778051611 | 10.56° C | 80% | 1004.6 hPa | 0.25 mm | - | 62 W/m² | - |
| 1778051011 | 10.56° C | 80% | 1004.7 hPa | 0 mm | - | 54 W/m² | - |
| 1778050411 | 10.56° C | 80% | 1004.8 hPa | 0 mm | - | 46 W/m² | - |
| 1778049811 | 10.56° C | 80% | 1004.6 hPa | 0 mm | - | 42 W/m² | - |
| 1778049211 | 10.56° C | 80% | 1004.5 hPa | 0 mm | - | 42 W/m² | - |
| 1778048611 | 10.56° C | 80% | 1004.6 hPa | 0 mm | - | 39 W/m² | - |
| 1778048011 | 10.56° C | 80% | 1004.6 hPa | 0 mm | - | 28 W/m² | - |
| 1778047411 | 10.56° C | 80% | 1004.6 hPa | 0 mm | - | 19 W/m² | - |
| 1778046811 | 10.56° C | 80% | 1004.4 hPa | 0 mm | - | 21 W/m² | - |
| 1778046211 | 10.56° C | 80% | 1004.5 hPa | 0.25 mm | - | 14 W/m² | - |
| 1778045611 | 10.56° C | 80% | 1004.6 hPa | 0.25 mm | - | 16 W/m² | - |
| 1778045011 | 10.56° C | 80% | 1004.4 hPa | 0.51 mm | - | 16 W/m² | - |
| 1778044411 | 10.56° C | 80% | 1004.6 hPa | 0.51 mm | - | 12 W/m² | - |
| 1778043811 | 10.56° C | 80% | 1004.5 hPa | 0.51 mm | - | 12 W/m² | - |
| 1778043211 | 10.56° C | 80% | 1004.5 hPa | 0.76 mm | - | 11 W/m² | - |
| 1778042611 | 10.56° C | 80% | 1004.5 hPa | 0.76 mm | - | 11 W/m² | - |
| 1778042011 | 10° C | 80% | 1004.6 hPa | 1.02 mm | - | 9 W/m² | - |
| 1778041411 | 10° C | 80% | 1004.5 hPa | 1.02 mm | - | 5 W/m² | - |
| 1778040811 | 10° C | 80% | 1004.6 hPa | 1.02 mm | - | 0 W/m² | - |
| 1778040211 | 10° C | 80% | 1004.5 hPa | 1.52 mm | - | 0 W/m² | - |
* Rain latest hour (hover to see other rain measurements)
** Current wind speed in m/s (hover to see current wind gust speed)